La Veta Pass, CO

2:55 AM MDT on March 23, 2017 (GMT -0600)
La Veta Pass

Weather History for KVTP - September, 2013

Change the Weather History Date:

Monday, September 2, 2013

  Actual Average (KALS) Record (KALS)
Temperature  
Mean Temperature 60 °F -  
Max Temperature 75 °F 77 °F 85 °F (1958)
Min Temperature 46 °F 40 °F 30 °F (1959)
Degree Days  
Heating Degree Days 4    
Growing Degree Days 10 (Base 50)    
Moisture  
Dew Point 46 °F    
Average Humidity 76    
Maximum Humidity 93    
Minimum Humidity 36    
Precipitation  
Precipitation 0.00 in - - ()
Sea Level Pressure  
Sea Level Pressure 30.54 in    
Wind  
Wind Speed 9 mph (WSW)    
Max Wind Speed 16 mph    
Max Gust Speed 30 mph    
Visibility 10 miles    
Events Rain , Thunderstorm    
Averages and records for this station are not official NWS values.
T = Trace of Precipitation, MM = Missing Value Source: NWS Daily Summary

Daily Weather History Graph

Daily Weather History Graph

Search for Another Location

Airport or City:

Trip Planner

Search our weather history database for the weather conditions in past years. The results will help you decide how hot, cold, wet, or windy it might be!

Date:

Astronomy

Sep. 02, 2013 Rise Set
Actual Time 6:32 AM MDT 7:27 PM MDT
Civil Twilight 6:05 AM MDT 7:54 PM MDT
Nautical Twilight 5:33 AM MDT 8:25 PM MDT
Astronomical Twilight 5:00 AM MDT 8:58 PM MDT
Moon 3:53 AM MDT (9/2) 5:41 PM MDT (9/2)
Length of Visible Light 13h 48m
Length of Day
12h 55m
Waning Crescent, 7% of the Moon is Illuminated
Sep 2
Waning Crescent
Sep 5
New
Sep 12
First Quarter
Sep 19
Full
Sep 26
Last Quarter

Hourly Weather History & Observations

Time (MDT) Temp. Windchill Dew Point Humidity Pressure Visibility Wind Dir Wind Speed Gust Speed Precip Events Conditions
12:15 AM 48.2 °F - 46.4 °F 93% 30.58 in 10.0 mi SSW 5.8 mph - N/A Rain , Thunderstorm Light Thunderstorms and Rain
12:35 AM 48.2 °F - 46.4 °F 93% 30.58 in 10.0 mi SSW 8.1 mph - N/A   Light Drizzle
12:55 AM 48.2 °F - 46.4 °F 93% 30.56 in 10.0 mi SW 11.5 mph - N/A   Overcast
1:13 AM 48.2 °F - 46.4 °F 93% 30.56 in 10.0 mi SW 10.4 mph 16.1 mph N/A Rain Light Rain
1:35 AM 48.2 °F - 46.4 °F 93% 30.54 in 10.0 mi SW 10.4 mph 17.3 mph N/A   Overcast
1:55 AM 48.2 °F - 46.4 °F 93% 30.54 in 10.0 mi SW 12.7 mph 20.7 mph N/A   Overcast
2:15 AM 50.0 °F - 46.4 °F 87% 30.53 in 10.0 mi SW 10.4 mph 24.2 mph N/A   Overcast
2:35 AM 50.0 °F - 46.4 °F 87% 30.54 in 10.0 mi SW 9.2 mph 25.3 mph N/A   Overcast
2:55 AM 48.2 °F - 46.4 °F 93% 30.53 in 10.0 mi SW 12.7 mph 18.4 mph N/A   Overcast
3:15 AM 48.2 °F - 46.4 °F 93% 30.52 in 10.0 mi SW 11.5 mph 21.9 mph N/A   Scattered Clouds
3:35 AM 48.2 °F - 46.4 °F 93% 30.52 in 10.0 mi SW 12.7 mph 23.0 mph N/A   Scattered Clouds
3:55 AM 48.2 °F - 44.6 °F 87% 30.52 in 10.0 mi SW 12.7 mph 26.5 mph N/A   Clear
4:13 AM 48.2 °F - 44.6 °F 87% 30.52 in 10.0 mi SW 13.8 mph 29.9 mph N/A   Clear
4:34 AM 46.4 °F 40.7 °F 44.6 °F 93% 30.52 in 10.0 mi SW 12.7 mph 23.0 mph N/A   Scattered Clouds
4:54 AM 46.4 °F 40.1 °F 44.6 °F 93% 30.52 in 10.0 mi SW 15.0 mph 29.9 mph N/A   Clear
5:15 AM 46.4 °F 41.1 °F 44.6 °F 93% 30.52 in 10.0 mi SW 11.5 mph 25.3 mph N/A   Clear
5:30 AM 46.4 °F 39.8 °F 44.6 °F 93% 30.52 in 10.0 mi SW 16.1 mph 27.6 mph N/A   Clear
5:53 AM 46.4 °F 40.1 °F 44.6 °F 93% 30.52 in 10.0 mi SW 15.0 mph 25.3 mph N/A   Clear
6:15 AM 46.4 °F 39.8 °F 44.6 °F 93% 30.52 in 10.0 mi SW 16.1 mph 25.3 mph N/A   Clear
6:35 AM 46.4 °F 40.1 °F 44.6 °F 93% 30.52 in 10.0 mi SW 15.0 mph 24.2 mph N/A   Clear
6:55 AM 46.4 °F 40.4 °F 44.6 °F 93% 30.52 in 10.0 mi SW 13.8 mph 27.6 mph N/A Thunderstorm Thunderstorm
7:15 AM 48.2 °F - 44.6 °F 87% 30.53 in 10.0 mi SW 11.5 mph 21.9 mph N/A   Clear
7:35 AM 46.4 °F 41.5 °F 44.6 °F 93% 30.54 in 10.0 mi SW 10.4 mph 23.0 mph N/A   Clear
7:55 AM 48.2 °F - 44.6 °F 87% 30.54 in 10.0 mi West 8.1 mph - N/A   Clear
8:15 AM 48.2 °F - 44.6 °F 87% 30.54 in 10.0 mi West 9.2 mph 16.1 mph N/A   Clear
8:35 AM 50.0 °F - 44.6 °F 82% 30.54 in 10.0 mi West 8.1 mph - N/A   Clear
8:55 AM 51.8 °F - 46.4 °F 82% 30.56 in 10.0 mi WSW 6.9 mph - N/A   Clear
9:15 AM 53.6 °F - 50.0 °F 88% 30.56 in 10.0 mi West 8.1 mph - N/A   Clear
9:35 AM 53.6 °F - 50.0 °F 88% 30.57 in 10.0 mi SW 6.9 mph - N/A   Scattered Clouds
9:55 AM 55.4 °F - 48.2 °F 77% 30.58 in 10.0 mi WSW 6.9 mph - N/A   Clear
10:15 AM 57.2 °F - 50.0 °F 77% 30.58 in 10.0 mi WSW 8.1 mph - N/A   Clear
10:35 AM 59.0 °F - 50.0 °F 72% 30.58 in 10.0 mi SW 8.1 mph - N/A   Clear
10:54 AM 59.0 °F - 50.0 °F 72% 30.58 in 10.0 mi SW 11.5 mph 17.3 mph N/A   Clear
11:14 AM 60.8 °F - 50.0 °F 68% 30.58 in 10.0 mi WSW 10.4 mph - N/A   Clear
11:35 AM 62.6 °F - 50.0 °F 63% 30.58 in 10.0 mi SW 9.2 mph - N/A   Clear
11:55 AM 62.6 °F - 48.2 °F 59% 30.57 in 10.0 mi SW 9.2 mph 16.1 mph N/A   Clear
12:13 PM 62.6 °F - 48.2 °F 59% 30.56 in 10.0 mi SW 6.9 mph 16.1 mph N/A   Clear
12:35 PM 66.2 °F - 48.2 °F 52% 30.56 in 10.0 mi West 4.6 mph - N/A   Clear
12:54 PM 66.2 °F - 46.4 °F 49% 30.56 in 10.0 mi WSW 4.6 mph - N/A   Clear
1:15 PM 68.0 °F - 46.4 °F 46% 30.56 in 10.0 mi WSW 3.5 mph - N/A Thunderstorm Thunderstorm
1:34 PM 66.2 °F - 42.8 °F 43% 30.55 in 10.0 mi SW 3.5 mph - N/A Thunderstorm Thunderstorm
1:55 PM 69.8 °F - 44.6 °F 40% 30.54 in 10.0 mi SW 5.8 mph - N/A Thunderstorm Thunderstorm
2:13 PM 68.0 °F - 44.6 °F 43% 30.54 in 10.0 mi SSW 3.5 mph - N/A Thunderstorm Scattered Clouds
2:34 PM 75.2 °F - 46.4 °F 36% 30.52 in 10.0 mi Calm Calm - N/A Thunderstorm Mostly Cloudy
2:53 PM 68.0 °F - 46.4 °F 46% 30.52 in 10.0 mi ENE 6.9 mph - N/A Thunderstorm Thunderstorm
3:14 PM 60.8 °F - 44.6 °F 55% 30.53 in 10.0 mi NE 8.1 mph - N/A Thunderstorm Thunderstorm
3:34 PM 53.6 °F - 50.0 °F 88% 30.53 in 5.0 mi North 9.2 mph 20.7 mph N/A Rain , Thunderstorm Thunderstorms and Rain
3:54 PM 53.6 °F - 50.0 °F 88% 30.54 in 4.0 mi North 11.5 mph 16.1 mph N/A Rain , Thunderstorm Thunderstorms and Rain
4:15 PM 51.8 °F - 48.2 °F 88% 30.54 in 10.0 mi North 6.9 mph 16.1 mph N/A Rain , Thunderstorm Light Thunderstorms and Rain
4:33 PM 53.6 °F - 48.2 °F 82% 30.53 in 10.0 mi East 10.4 mph - N/A Thunderstorm Thunderstorm
4:55 PM 53.6 °F - 50.0 °F 88% 30.52 in 10.0 mi SE 5.8 mph - N/A Thunderstorm Thunderstorm
5:14 PM 57.2 °F - 46.4 °F 67% 30.52 in 10.0 mi ESE 3.5 mph - N/A Rain , Thunderstorm Light Thunderstorms and Rain
5:34 PM 55.4 °F - 50.0 °F 82% 30.52 in 10.0 mi East 3.5 mph - N/A Thunderstorm Unknown
5:54 PM 55.4 °F - 50.0 °F 82% 30.52 in 10.0 mi Calm Calm - N/A Thunderstorm Overcast
6:15 PM 53.6 °F - 44.6 °F 72% 30.52 in 10.0 mi Calm Calm - N/A   Overcast
6:35 PM 55.4 °F - 42.8 °F 63% 30.53 in 10.0 mi NW 6.9 mph - N/A Thunderstorm Thunderstorm
6:54 PM 53.6 °F - 44.6 °F 72% 30.53 in 10.0 mi NW 8.1 mph - N/A Thunderstorm Overcast
7:12 PM 53.6 °F - 46.4 °F 77% 30.54 in 10.0 mi WNW 10.4 mph - N/A   Mostly Cloudy
7:35 PM 53.6 °F - 44.6 °F 72% 30.54 in 10.0 mi NW 10.4 mph 16.1 mph N/A   Scattered Clouds
7:54 PM 55.4 °F - 44.6 °F 67% 30.54 in 10.0 mi NW 6.9 mph - N/A   Clear
8:14 PM 55.4 °F - 44.6 °F 67% 30.54 in 10.0 mi NNW 5.8 mph - N/A   Clear
8:34 PM 55.4 °F - 44.6 °F 67% 30.54 in 10.0 mi NNW 6.9 mph - N/A   Clear
8:55 PM 55.4 °F - 44.6 °F 67% 30.54 in 10.0 mi NNW 4.6 mph - N/A   Clear
9:15 PM 57.2 °F - 44.6 °F 63% 30.54 in 10.0 mi Calm Calm - N/A   Clear
9:34 PM 53.6 °F - 44.6 °F 72% 30.54 in 10.0 mi Calm Calm - N/A   Clear
9:55 PM 53.6 °F - 44.6 °F 72% 30.54 in 10.0 mi Calm Calm - N/A   Clear
10:14 PM 55.4 °F - 42.8 °F 63% 30.54 in 10.0 mi Calm Calm - N/A   Clear
10:35 PM 55.4 °F - 42.8 °F 63% 30.54 in 10.0 mi Calm Calm - N/A   Clear
10:55 PM 55.4 °F - 42.8 °F 63% 30.54 in 10.0 mi Calm Calm - N/A   Clear
11:15 PM 55.4 °F - 42.8 °F 63% 30.54 in 10.0 mi WNW 3.5 mph - N/A   Clear
11:35 PM 53.6 °F - 44.6 °F 72% 30.54 in 10.0 mi Calm Calm - N/A   Clear
11:54 PM 53.6 °F - 44.6 °F 72% 30.54 in 10.0 mi West 4.6 mph - N/A   Clear